Weather History for Lawrence, MA

Change the Weather History Date:

Friday, February 22, 2013

  Actual Average Record
Temperature  
Mean Temperature 32 °F -  
Max Temperature 39 °F 43 °F 62 °F (1989)
Min Temperature 25 °F 21 °F -2 °F (1963)
Degree Days  
Heating Degree Days 33    
Moisture  
Dew Point 18 °F    
Average Humidity 57    
Maximum Humidity 70    
Minimum Humidity 39    
Precipitation  
Precipitation 0.00 in - - ()
Sea Level Pressure  
Sea Level Pressure 30.35 in    
Wind  
Wind Speed 6 mph (NNE)    
Max Wind Speed 14 mph    
Max Gust Speed 21 mph    
Visibility 10 miles    
Events      
Averages and records for this station are not official NWS values.
T = Trace of Precipitation, MM = Missing Value Source: NWS Daily Summary

Daily Weather History Graph

Daily Weather History Graph

Search for Another Location

Airport:

Trip Planner

Search our weather history database for the weather conditions in past years. The results will help you decide how hot, cold, wet, or windy it might be!

Date:

Astronomy

Feb. 22, 2013 Rise Set
Actual Time 6:30 AM EST 5:25 PM EST
Civil Twilight 6:02 AM EST 5:54 PM EST
Nautical Twilight 5:29 AM EST 6:27 PM EST
Astronomical Twilight 4:56 AM EST 6:59 PM EST
Moon 2:31 PM EST (2/22) 4:17 AM EST (2/22)
Length of Visible Light 11h 51m
Length of Day
10h 54m
Waxing Gibbous, 90% of the Moon is Illuminated
Feb 22
Waxing Gibbous
Feb 25
Full
Mar 4
Last Quarter
Mar 11
New
Mar 19
First Quarter

Hourly Weather History & Observations

Time (EST) Temp. Windchill Dew Point Humidity Pressure Visibility Wind Dir Wind Speed Gust Speed Precip Events Conditions
12:54 AM 26.1 °F 16.8 °F 14.0 °F 60% 30.26 in 10.0 mi NW 9.2 mph 17.3 mph N/A   Clear
1:54 AM 26.1 °F 16.8 °F 15.1 °F 63% 30.26 in 10.0 mi North 9.2 mph - N/A   Mostly Cloudy
2:54 AM 26.1 °F 19.4 °F 16.0 °F 66% 30.27 in 10.0 mi NW 5.8 mph - N/A   Overcast
3:54 AM 26.1 °F 18.4 °F 16.0 °F 66% 30.29 in 10.0 mi North 6.9 mph - N/A   Scattered Clouds
4:54 AM 25.0 °F 19.3 °F 16.0 °F 69% 30.30 in 10.0 mi NNW 4.6 mph - N/A   Clear
5:54 AM 25.0 °F 18.1 °F 16.0 °F 69% 30.33 in 10.0 mi NW 5.8 mph - N/A   Clear
6:54 AM 25.0 °F 19.3 °F 16.0 °F 69% 30.38 in 10.0 mi Variable 4.6 mph - N/A   Clear
7:54 AM 28.0 °F 22.8 °F 17.1 °F 63% 30.40 in 10.0 mi NNW 4.6 mph - N/A   Clear
8:54 AM 32.0 °F 22.1 °F 18.0 °F 56% 30.40 in 10.0 mi NNE 13.8 mph 17.3 mph N/A   Clear
9:54 AM 34.0 °F 25.5 °F 18.0 °F 52% 30.39 in 10.0 mi NNE 11.5 mph 20.7 mph N/A   Clear
10:54 AM 36.0 °F 29.0 °F 17.1 °F 46% 30.39 in 10.0 mi NE 9.2 mph - N/A   Clear
11:54 AM 39.0 °F 34.0 °F 17.1 °F 41% 30.37 in 10.0 mi ENE 6.9 mph - N/A   Clear
12:54 PM 39.9 °F 35.8 °F 17.1 °F 40% 30.37 in 10.0 mi East 5.8 mph - N/A   Clear
1:54 PM 39.0 °F - 16.0 °F 39% 30.37 in 10.0 mi Calm Calm - N/A   Clear
2:54 PM 39.0 °F - 17.1 °F 41% 30.36 in 10.0 mi Calm Calm - N/A   Clear
3:54 PM 39.0 °F - 18.0 °F 43% 30.36 in 10.0 mi Calm Calm - N/A   Clear
4:54 PM 37.9 °F 33.5 °F 19.0 °F 47% 30.34 in 10.0 mi SE 5.8 mph - N/A   Clear
5:54 PM 36.0 °F 32.1 °F 19.9 °F 52% 30.35 in 10.0 mi ESE 4.6 mph - N/A   Clear
6:54 PM 35.1 °F - 21.0 °F 57% 30.36 in 10.0 mi Calm Calm - N/A   Clear
7:54 PM 34.0 °F - 21.0 °F 59% 30.36 in 10.0 mi Calm Calm - N/A   Clear
8:54 PM 34.0 °F - 21.9 °F 61% 30.37 in 10.0 mi Calm Calm - N/A   Clear
9:54 PM 33.1 °F - 23.0 °F 66% 30.37 in 10.0 mi Calm Calm - N/A   Clear
10:54 PM 33.1 °F - 23.0 °F 66% 30.36 in 10.0 mi Calm Calm - N/A   Overcast
11:54 PM 33.1 °F - 24.1 °F 70% 30.36 in 10.0 mi Calm Calm - N/A   Overcast